STARLINK-5094 (53977 NORAD) Tracking and Keplerian Element Data

This shows tracking and keplerian element data for the satellite.

Feedback or suggestion? Click here.




ElementValue
Catalog53977
NameSTARLINK-5094
Epoch Orbit130
Epoch Day324.91667824
Epoch Year2022
RAAN227.9764
Inclination53.2175
Eccentricity0.0002013
Argument of Perigee32.1432
Mean Anonmoly67.4994
Mean Motion15.24328397
Decay Rate-0.01150433
L11 53977U 22125P 22324.91667824 -.01150433 00000+0 -50313-1 0 9990
L22 53977 53.2175 227.9764 0002013 32.1432 67.4994 15.24328397 1301



Live tracking and technical data element details for STARLINK-5094 (NORAD 53977). STARLINK-5094 can be tracked NOW for your location showing map with azimuth and elevation plus other details from your city location.







IsCatalogInMostPopularTable: catalog: 53977, numindb: 3
Update: records affected: 1



GetName: 53977 STARLINK-5094

Hit Count: updated at: Mon, 28 Nov 2022 21:15:34 GMT